Copper Mountain, CO

4:11 AM MST on December 15, 2017 (GMT -0700)
Copper Mountain

Weather History for KCCU - March, 2013

Change the Weather History Date:

Friday, March 15, 2013

  Actual Average Record
Temperature  
Mean Temperature 37 °F -  
Max Temperature 44 °F - 53 °F (2015)
Min Temperature 30 °F - -4 °F (2002)
Degree Days  
Heating Degree Days 28    
Month to date heating degree days  
Cooling Degree Days 0    
Month to date cooling degree days  
Moisture  
Dew Point 13 °F    
Average Humidity 38    
Maximum Humidity 55    
Minimum Humidity 23    
Precipitation  
Precipitation 0.01 in - 0.09 in (2004)
Sea Level Pressure  
Sea Level Pressure 30.32 in    
Wind  
Wind Speed 19 mph (West)    
Max Wind Speed 40 mph    
Max Gust Speed 50 mph    
Visibility 9 miles    
Events      
T = Trace of Precipitation, MM = Missing Value Source: NWS Daily Summary

Daily Weather History Graph

Daily Weather History Graph

Search for Another Location

Airport or City:

Trip Planner

Search our weather history database for the weather conditions in past years. The results will help you decide how hot, cold, wet, or windy it might be!

Date:

Astronomy

Mar. 15, 2013 Rise Set
Actual Time 7:15 AM MDT 7:11 PM MDT
Civil Twilight 6:48 AM MDT 7:38 PM MDT
Nautical Twilight 6:17 AM MDT 8:09 PM MDT
Astronomical Twilight 5:46 AM MDT 8:41 PM MDT
Moon 9:08 AM MDT 11:27 PM MDT
Length of Visible Light 12h 49m
Length of Day
11h 56m
Waxing Crescent, 16% of the Moon is Illuminated
Mar 15
Waxing Crescent
Mar 19
First Quarter
Mar 27
Full
Apr 2
Last Quarter
Apr 10
New

Hourly Weather History & Observations

Time (MDT) Temp. Windchill Dew Point Humidity Pressure Visibility Wind Dir Wind Speed Gust Speed Precip Events Conditions
12:12 AM 33.8 °F 23.9 °F 14.0 °F 44% 30.48 in 10.0 mi West 15.0 mph 21.9 mph N/A   Clear
12:32 AM 33.8 °F 21.9 °F 15.8 °F 48% 30.47 in 10.0 mi West 21.9 mph 28.8 mph N/A   Clear
12:52 AM 33.8 °F 23.5 °F 15.8 °F 48% 30.47 in 10.0 mi West 16.1 mph 25.3 mph N/A   Clear
1:12 AM 33.8 °F 26.4 °F 15.8 °F 48% 30.46 in 10.0 mi WSW 9.2 mph 23.0 mph N/A   Clear
1:32 AM 33.8 °F 22.5 °F 15.8 °F 48% 30.45 in 10.0 mi WSW 19.6 mph 25.3 mph N/A   Clear
1:52 AM 33.8 °F 23.9 °F 15.8 °F 48% 30.46 in 10.0 mi SW 15.0 mph 25.3 mph N/A   Clear
2:12 AM 33.8 °F 23.2 °F 15.8 °F 48% 30.45 in 10.0 mi WSW 17.3 mph 23.0 mph N/A   Clear
2:32 AM 33.8 °F 22.5 °F 15.8 °F 48% 30.44 in 10.0 mi WSW 19.6 mph - N/A   Clear
2:52 AM 33.8 °F 22.5 °F 15.8 °F 48% 30.43 in 10.0 mi West 19.6 mph 26.5 mph N/A   Clear
3:12 AM 33.8 °F 24.3 °F 15.8 °F 48% 30.42 in 10.0 mi WSW 13.8 mph 25.3 mph N/A   Clear
3:32 AM 33.8 °F 22.5 °F 14.0 °F 44% 30.41 in 10.0 mi West 19.6 mph 25.3 mph N/A   Clear
3:52 AM 33.8 °F 23.9 °F 17.6 °F 52% 30.41 in 10.0 mi West 15.0 mph - N/A   Clear
4:12 AM 33.8 °F 24.8 °F 17.6 °F 52% 30.40 in 10.0 mi West 12.7 mph - N/A   Clear
4:32 AM 32.0 °F 23.0 °F 15.8 °F 51% 30.40 in 10.0 mi West 11.5 mph - N/A   Clear
4:52 AM 33.8 °F 25.8 °F 17.6 °F 52% 30.40 in 10.0 mi West 10.4 mph - N/A   Clear
5:12 AM 32.0 °F 22.5 °F 15.8 °F 51% 30.40 in 10.0 mi West 12.7 mph - N/A   Clear
5:32 AM 32.0 °F 23.6 °F 17.6 °F 55% 30.39 in 10.0 mi West 10.4 mph - N/A   Clear
5:52 AM 30.2 °F 21.9 °F 14.0 °F 51% 30.38 in 10.0 mi West 9.2 mph - N/A   Clear
6:12 AM 32.0 °F 24.2 °F 15.8 °F 51% 30.38 in 10.0 mi West 9.2 mph - N/A   Clear
6:21 AM 32.0 °F 28.7 °F 17.6 °F 55% 30.38 in 10.0 mi WSW 3.5 mph - N/A   Clear
6:52 AM 32.0 °F 25.6 °F 14.0 °F 48% 30.38 in 10.0 mi West 6.9 mph - N/A   Clear
7:12 AM 32.0 °F 25.6 °F 14.0 °F 48% 30.38 in 10.0 mi West 6.9 mph 19.6 mph N/A   Clear
7:32 AM 32.0 °F 25.6 °F 12.2 °F 44% 30.37 in 10.0 mi WSW 6.9 mph 17.3 mph N/A   Clear
7:52 AM 33.8 °F 29.6 °F 14.0 °F 44% 30.36 in 10.0 mi WNW 4.6 mph 9.2 mph N/A   Clear
8:12 AM 33.8 °F 28.6 °F 14.0 °F 44% 30.37 in 10.0 mi West 5.8 mph - N/A   Clear
8:32 AM 33.8 °F 22.2 °F 12.2 °F 41% 30.36 in 10.0 mi West 20.7 mph 29.9 mph N/A   Clear
8:52 AM 35.6 °F 25.5 °F 12.2 °F 38% 30.36 in 10.0 mi West 17.3 mph 26.5 mph N/A   Clear
9:12 AM 37.4 °F 26.6 °F 12.2 °F 36% 30.36 in 10.0 mi West 21.9 mph 28.8 mph N/A   Clear
9:32 AM 37.4 °F 26.1 °F 12.2 °F 36% 30.35 in 10.0 mi West 24.2 mph 38.0 mph N/A   Clear
9:52 AM 37.4 °F 25.2 °F 12.2 °F 36% 30.34 in 10.0 mi West 28.8 mph 35.7 mph N/A   Clear
10:12 AM 39.2 °F 28.7 °F 12.2 °F 33% 30.35 in 10.0 mi West 23.0 mph 32.2 mph N/A   Clear
10:32 AM 41.0 °F 31.1 °F 14.0 °F 33% 30.34 in 7.0 mi West 23.0 mph 39.1 mph N/A   Clear
10:52 AM 41.0 °F 29.7 °F 12.2 °F 31% 30.34 in 5.0 mi West 31.1 mph 42.6 mph N/A   Haze
11:12 AM 41.0 °F 29.1 °F 10.4 °F 29% 30.33 in 5.0 mi West 34.5 mph 49.5 mph N/A   Haze
11:32 AM 41.0 °F 28.3 °F 10.4 °F 29% 30.32 in 7.0 mi West 40.3 mph 49.5 mph N/A   Clear
11:52 AM 42.8 °F 32.1 °F 10.4 °F 27% 30.34 in 10.0 mi West 31.1 mph 39.1 mph N/A   Clear
12:12 PM 41.0 °F 28.6 °F 10.4 °F 29% 30.32 in 5.0 mi West 38.0 mph 49.5 mph N/A   Haze
12:32 PM 41.0 °F 28.6 °F 10.4 °F 29% 30.32 in 5.0 mi West 38.0 mph 46.0 mph N/A   Haze
12:52 PM 44.6 °F 34.4 °F 10.4 °F 25% 30.32 in 5.0 mi West 32.2 mph 49.5 mph N/A   Haze
1:12 PM 41.0 °F 29.8 °F 10.4 °F 29% 30.32 in 3.0 mi West 29.9 mph 49.5 mph N/A   Haze
1:32 PM 42.8 °F 32.7 °F 10.4 °F 27% 30.31 in 7.0 mi West 27.6 mph 43.7 mph N/A   Clear
1:52 PM 42.8 °F 33.1 °F 10.4 °F 27% 30.30 in 5.0 mi West 25.3 mph 47.2 mph N/A   Haze
2:12 PM 44.6 °F 35.7 °F 12.2 °F 27% 30.29 in 7.0 mi West 24.2 mph 39.1 mph N/A   Clear
2:32 PM 42.8 °F 31.6 °F 10.4 °F 27% 30.26 in 7.0 mi West 34.5 mph 43.7 mph N/A   Clear
2:52 PM 44.6 °F 34.7 °F 10.4 °F 25% 30.27 in 7.0 mi West 29.9 mph 38.0 mph N/A   Clear
3:12 PM 41.0 °F 29.1 °F 8.6 °F 26% 30.24 in 7.0 mi West 34.5 mph 43.7 mph N/A   Clear
3:32 PM 42.8 °F 33.1 °F 10.4 °F 27% 30.26 in 10.0 mi West 25.3 mph 38.0 mph N/A   Clear
3:52 PM 42.8 °F 33.1 °F 8.6 °F 25% 30.25 in 7.0 mi West 25.3 mph 38.0 mph N/A   Clear
4:12 PM 44.6 °F 35.1 °F 8.6 °F 23% 30.25 in 10.0 mi West 27.6 mph 39.1 mph N/A   Clear
4:32 PM 42.8 °F 32.5 °F 10.4 °F 27% 30.25 in 10.0 mi West 28.8 mph 39.1 mph 0.01 in   Clear
4:52 PM 42.8 °F 33.1 °F 10.4 °F 27% 30.25 in 10.0 mi West 25.3 mph 35.7 mph 0.01 in   Clear
5:12 PM 41.0 °F 29.7 °F 8.6 °F 26% 30.25 in 4.0 mi WNW 31.1 mph 46.0 mph N/A   Haze
5:32 PM 41.0 °F 30.9 °F 8.6 °F 26% 30.24 in 10.0 mi West 24.2 mph 32.2 mph N/A   Clear
5:52 PM 39.2 °F 27.8 °F 8.6 °F 28% 30.25 in 10.0 mi West 27.6 mph 38.0 mph N/A   Clear
6:12 PM 37.4 °F 26.4 °F 10.4 °F 33% 30.25 in 10.0 mi West 23.0 mph 33.4 mph N/A   Clear
6:32 PM 37.4 °F 26.4 °F 12.2 °F 36% 30.25 in 10.0 mi West 23.0 mph 27.6 mph N/A   Clear
6:52 PM 37.4 °F 26.4 °F 12.2 °F 36% 30.25 in 10.0 mi West 23.0 mph 29.9 mph N/A   Clear
7:12 PM 37.4 °F 25.9 °F 10.4 °F 33% 30.24 in 10.0 mi West 25.3 mph 34.5 mph N/A   Clear
7:32 PM 37.4 °F 25.9 °F 10.4 °F 33% 30.24 in 10.0 mi West 25.3 mph 32.2 mph N/A   Clear
7:52 PM 35.6 °F 23.4 °F 8.6 °F 33% 30.24 in 10.0 mi West 25.3 mph 31.1 mph N/A   Clear
8:12 PM 35.6 °F 23.0 °F 10.4 °F 35% 30.24 in 7.0 mi West 27.6 mph 35.7 mph N/A   Clear
8:32 PM 35.6 °F 23.4 °F 10.4 °F 35% 30.23 in 4.0 mi West 25.3 mph 38.0 mph N/A   Haze
8:52 PM 35.6 °F 23.4 °F 12.2 °F 38% 30.24 in 10.0 mi West 25.3 mph 31.1 mph N/A   Clear
9:12 PM 35.6 °F 23.2 °F 12.2 °F 38% 30.24 in 10.0 mi West 26.5 mph 33.4 mph N/A   Clear
9:32 PM 33.8 °F 21.3 °F 12.2 °F 41% 30.23 in 10.0 mi West 24.2 mph 31.1 mph N/A   Clear
9:52 PM 33.8 °F 22.2 °F 12.2 °F 41% 30.23 in 10.0 mi West 20.7 mph 32.2 mph N/A   Clear
10:12 PM 33.8 °F 22.2 °F 12.2 °F 41% 30.23 in 10.0 mi West 20.7 mph 33.4 mph N/A   Clear
10:32 PM 33.8 °F 21.6 °F 14.0 °F 44% 30.23 in 10.0 mi WSW 23.0 mph 29.9 mph N/A   Clear
10:52 PM 33.8 °F 22.5 °F 14.0 °F 44% 30.22 in 10.0 mi West 19.6 mph 32.2 mph N/A   Clear
11:12 PM 33.8 °F 21.9 °F 14.0 °F 44% 30.22 in 10.0 mi West 21.9 mph 31.1 mph N/A   Scattered Clouds
11:32 PM 35.6 °F 23.4 °F 14.0 °F 41% 30.21 in 10.0 mi West 25.3 mph 32.2 mph N/A   Scattered Clouds
11:52 PM 33.8 °F 21.3 °F 14.0 °F 44% 30.21 in 10.0 mi West 24.2 mph 28.8 mph N/A   Clear